Weather History for Ottumwa, IA

Change the Weather History Date:

Friday, August 23, 2013

  Actual Average Record
Temperature  
Mean Temperature 75 °F 72 °F  
Max Temperature 87 °F 83 °F 102 °F (1948)
Min Temperature 63 °F 61 °F 44 °F (1923)
Degree Days  
Heating Degree Days 0 0  
Month to date heating degree days 6 0  
Since 1 June heating degree days 42 23  
Since 1 July heating degree days 16 2  
Cooling Degree Days 10 8  
Month to date cooling degree days 136 201  
Year to date cooling degree days 677 780  
Since 1 June cooling degree days 600 716  
Growing Degree Days 24 (Base 50)    
Moisture  
Dew Point 66 °F    
Average Humidity 76    
Maximum Humidity 100    
Minimum Humidity 51    
Precipitation  
Precipitation 0.00 in 0.15 in 3.24 in (2007)
Month to date precipitation 0.96 3.44  
Year to date precipitation 28.54 25.53  
Sea Level Pressure  
Sea Level Pressure 30.09 in    
Wind  
Wind Speed 7 mph (ESE)    
Max Wind Speed 12 mph    
Max Gust Speed 15 mph    
Visibility 7 miles    
Events Fog    
T = Trace of Precipitation, MM = Missing Value Source: NWS Daily Summary

Daily Weather History Graph

Daily Weather History Graph

Search for Another Location

Airport:

Trip Planner

Search our weather history database for the weather conditions in past years. The results will help you decide how hot, cold, wet, or windy it might be!

Date:

Astronomy

Aug. 23, 2013 Rise Set
Actual Time 6:27 AM CDT 7:56 PM CDT
Civil Twilight 5:58 AM CDT 8:25 PM CDT
Nautical Twilight 5:23 AM CDT 8:59 PM CDT
Astronomical Twilight 4:46 AM CDT 9:36 PM CDT
Moon 9:12 PM CDT (8/23) 9:25 AM CDT (8/23)
Length of Visible Light 14h 26m
Length of Day
13h 28m
Waning Gibbous, 91% of the Moon is Illuminated
Aug 23
Waning Gibbous
Aug 28
Last Quarter
Sep 5
New
Sep 12
First Quarter
Sep 19
Full

Hourly Weather History & Observations

Time (CDT) Temp. Heat Index Dew Point Humidity Pressure Visibility Wind Dir Wind Speed Gust Speed Precip Events Conditions
12:53 AM 68.0 °F - 66.0 °F 93% 30.09 in 7.0 mi East 6.9 mph - N/A   Clear
1:53 AM 68.0 °F - 66.0 °F 93% 30.09 in 7.0 mi East 5.8 mph - N/A   Clear
2:53 AM 66.9 °F - 66.0 °F 97% 30.08 in 5.0 mi East 5.8 mph - N/A   Clear
3:53 AM 66.0 °F - 64.9 °F 96% 30.09 in 4.0 mi SE 4.6 mph - N/A   Partly Cloudy
4:53 AM 66.9 °F - 64.9 °F 93% 30.10 in 5.0 mi East 3.5 mph - N/A   Scattered Clouds
5:53 AM 64.9 °F - 64.0 °F 97% 30.11 in 4.0 mi East 4.6 mph - N/A   Scattered Clouds
6:10 AM 64.4 °F - 64.4 °F 100% 30.12 in 3.0 mi Calm Calm - N/A   Mostly Cloudy
6:12 AM 64.4 °F - 64.4 °F 100% 30.12 in 2.0 mi Calm Calm - N/A   Mostly Cloudy
6:15 AM 64.4 °F - 62.6 °F 94% 30.12 in 0.8 mi Calm Calm - N/A   Mostly Cloudy
6:27 AM 62.6 °F - 62.6 °F 100% 30.12 in 0.5 mi Calm Calm - N/A Fog Fog
6:40 AM 64.4 °F - 62.6 °F 94% 30.12 in 0.2 mi Calm Calm - N/A Fog Fog
6:47 AM 64.4 °F - 62.6 °F 94% 30.12 in 1.0 mi East 3.5 mph - N/A   Overcast
6:53 AM 64.9 °F - 64.0 °F 97% 30.11 in 3.0 mi Calm Calm - N/A   Overcast
7:36 AM 66.2 °F - 66.2 °F 100% 30.13 in 4.0 mi East 4.6 mph - N/A   Mostly Cloudy
7:53 AM 68.0 °F - 66.0 °F 93% 30.11 in 4.0 mi East 6.9 mph - N/A   Partly Cloudy
8:53 AM 71.1 °F - 66.9 °F 87% 30.11 in 8.0 mi ESE 5.8 mph - N/A   Scattered Clouds
9:53 AM 73.9 °F - 68.0 °F 82% 30.11 in 10.0 mi ESE 5.8 mph - N/A   Mostly Cloudy
10:53 AM 77.0 °F - 69.1 °F 76% 30.11 in 10.0 mi SE 6.9 mph - N/A   Mostly Cloudy
11:04 AM 78.8 °F - 69.8 °F 74% 30.13 in 10.0 mi ESE 6.9 mph - N/A   Mostly Cloudy
11:53 AM 81.0 °F 84.1 °F 69.1 °F 67% 30.12 in 10.0 mi SSE 8.1 mph - N/A   Scattered Clouds
12:53 PM 82.9 °F 86.5 °F 69.1 °F 63% 30.10 in 10.0 mi ENE 6.9 mph - N/A   Clear
1:53 PM 84.9 °F 88.8 °F 69.1 °F 59% 30.09 in 10.0 mi ESE 8.1 mph - N/A   Clear
2:53 PM 86.0 °F 90.1 °F 69.1 °F 57% 30.07 in 10.0 mi SE 9.2 mph - N/A   Clear
3:53 PM 86.0 °F 89.4 °F 68.0 °F 55% 30.05 in 10.0 mi ESE 8.1 mph - N/A   Clear
4:53 PM 86.0 °F 88.2 °F 66.0 °F 51% 30.04 in 10.0 mi East 8.1 mph - N/A   Clear
5:53 PM 84.9 °F 87.6 °F 66.9 °F 55% 30.03 in 10.0 mi ESE 9.2 mph - N/A   Clear
6:53 PM 82.9 °F 85.8 °F 68.0 °F 60% 30.04 in 10.0 mi ESE 5.8 mph - N/A   Clear
7:53 PM 79.0 °F - 68.0 °F 69% 30.05 in 10.0 mi East 5.8 mph - N/A   Clear
8:53 PM 73.9 °F - 68.0 °F 82% 30.06 in 10.0 mi East 6.9 mph - N/A   Clear
9:53 PM 73.0 °F - 66.9 °F 81% 30.09 in 10.0 mi ESE 8.1 mph - N/A   Clear
10:53 PM 73.0 °F - 66.9 °F 81% 30.08 in 10.0 mi ESE 10.4 mph - N/A   Clear
11:53 PM 72.0 °F - 66.9 °F 84% 30.08 in 10.0 mi SE 9.2 mph - N/A   Clear